Regional Weather Roundup
Issued by NWS Upton, NY

Home | Current Version | Previous Version | Text Only | Print | Product List | Glossary On
Versions: 1 2 3 4 5 6 7 8 9 10 11 12 13 14 15 16 17 18 19 20 21 22 23 24 25 26 27 28 29 30 31 32 33 34 35 36 37 38 39 40 41 42 43 44 45 46 47 48
000
ASUS41 KOKX 220805
RWROKX

REGIONAL WEATHER ROUNDUP
NATIONAL WEATHER SERVICE NEW YORK NY
400 AM EDT WED OCT 22 2014

NOTE: "FAIR" INDICATES FEW OR NO CLOUDS BELOW 12,000 FEET WITH NO
SIGNIFICANT WEATHER AND/OR OBSTRUCTIONS TO VISIBILITY.

NYZ071-072-176-178-NJZ106-104-220900-
NEW YORK CITY METRO AREA


CITY           SKY/WX    TMP DP  RH WIND       PRES   REMARKS
CENTRAL PARK   RAIN      57  54  89 E8        29.91R FOG
LAGUARDIA APRT TSTM      57  55  93 E16       29.88R
KENNEDY INTL   TSTM      56  52  86 E14       29.88R FOG
NEWARK/LIBERTY CLOUDY    56  54  93 N15       29.87F
BRNX BOT. GARD   N/A     55  52  88 N2        29.91R
TETERBORO      LGT RAIN  57  52  83 N3        29.88R
$$

NYZ177-179-078>081-220900-
LONG ISLAND NEW YORK

CITY           SKY/WX    TMP DP  RH WIND       PRES   REMARKS
FARMINGDALE    CLOUDY    58  55  90 NE13      29.87S
ISLIP          CLOUDY    57  54  89 NE13      29.85F
SHIRLEY        MOCLDY    57  54  89 VRB7      29.88F
WESTHAMPTON    CLOUDY    58  55  90 NE14      29.88F
MONTAUK POINT    N/A     59  56  89 NE9       29.90S
$$

NYZ052-065-067-220900-
HUDSON VALLEY

CITY           SKY/WX    TMP DP  RH WIND       PRES   REMARKS
WHITE PLAINS   LGT RAIN  55  52  89 NE7       29.89S
NEWBURGH       CLOUDY    52  52 100 VRB3      29.93F
MONTGOMERY     CLOUDY    51  49  92 NE14G22   29.93S
POUGHKEEPSIE   CLOUDY    52  49  89 N9        29.94S
ALBANY         CLOUDY    50  46  86 N8        30.02S
$$

NJZ001-105-106-008-010-013-015-019>022-104-220900-
NEW JERSEY

CITY           SKY/WX    TMP DP  RH WIND       PRES   REMARKS
NEWARK/LIBERTY CLOUDY    56  54  93 N15       29.87F
TETERBORO      LGT RAIN  57  52  83 N3        29.88R
CALDWELL       CLOUDY    55  51  86 NE3       29.89S
MORRISTOWN     CLOUDY    55  54  94 N5        29.89S
SOMERVILLE     CLOUDY    55  52  89 CALM      29.86S
SUSSEX         CLOUDY    55  50  83 NE8       29.92S
ANDOVER          N/A     52  50  93 NE9       29.91R
TRENTON        CLOUDY    54  50  86 N8        29.85S
MILLVILLE      RAIN      55  54  96 N10       29.80F FOG
ATLANTIC CITY  LGT RAIN  57  57 100 NE3       29.82R
WRIGHTSTOWN    CLOUDY    55  54  99 N10       29.81S
TOMS RIVER     CLOUDY    55  54  94 NE3       29.83S THUNDER
BELMAR         CLOUDY    57  48  72 N5        29.84S
$$

PAZ047>061-062-071-220900-
EASTERN PENNSYLVANIA

CITY           SKY/WX    TMP DP  RH WIND       PRES   REMARKS
PHILADELPHIA   CLOUDY    57  50  77 N15       29.84F
ALLENTOWN      CLOUDY    53  49  86 N8        29.89F
SCRANTON       CLOUDY    52  50  93 CALM      29.93F
$$

CTZ002-004>006-009-010-012-RIZ004-006-007-MAZ004-011-015-220900-
SOUTHERN NEW ENGLAND
 IN CT

CITY           SKY/WX    TMP DP  RH WIND       PRES   REMARKS
BRADLEY INTL   CLOUDY    54  48  80 N13       29.95S
HARTFORD       CLOUDY    54  50  86 N10       29.95R
DANBURY        CLOUDY    54  32  43 NE8       29.93S
WTRBRY/OXFORD  CLOUDY    52  46  82 NE12G18   29.92S
BRIDGEPORT     CLOUDY    56  52  86 NE12      29.91R
MERIDEN        CLOUDY    54  50  86 N12G18    29.93S
NEW HAVEN      MOCLDY    56  52  86 NE12      29.91S
CHESTER        CLOUDY    55  54  94 N8        29.93R
GROTON         CLOUDY    56  53  90 N12       29.91S
WILLIMANTIC    CLOUDY    54  49  83 NE13      29.95R

 IN RI

CITY           SKY/WX    TMP DP  RH WIND       PRES   REMARKS
PROVIDENCE     CLOUDY    53  51  93 N14       29.94F
BLOCK ISLAND   CLOUDY    57  54  88 NE15G24   29.90S
WESTERLY       CLOUDY    56  53  90 N8        29.92S

 IN MA

CITY           SKY/WX    TMP DP  RH WIND       PRES   REMARKS
BOSTON         CLOUDY    51  49  92 N14       29.97F
WORCESTER      FOG       47  46  97 N13       29.97S VSB 1/4
WESTFIELD      CLOUDY    53  48  83 N7        29.98R
PROVINCETOWN   MOCLDY    57  54  88 N10       29.94S
NANTUCKET      CLOUDY    56  55  97 N8        29.90R FOG
$$

ANZ330-335-338-340-345-350-353-355-220900-
COASTAL MARINE OBSERVATIONS


STATION/POSITION TIME  SKY/WX   TEMP    WIND        PRES    VSBY  WAVE
                                AIR SEA DIR/SP/G                  HT/PER
                 (UTC)          (F)     (DEG/KT/KT) (MB)    (MI)  (FT/S)
NY HARB ENTRANCE NOT AVBL
4S FIRE IS       0800               63                N/A           4/ 7
20S FIRE ISLAND  0800            62 64   60/ 21/ 25 1009.1          4/ 6
23SW MTP         0800                                 N/A           5/ 6
HUDSON CANYON    0800            65 66   80/ 12/ 16 1008.9          4/ 8
EXECUTION ROCKS  0800            59 63   60/ 19/ 25   N/A
WESTERN LI SOUND 0800            58      60/ 17/ 23   N/A           3/ 5
CENTRAL LI SOUND 0700            59 64   60/ 17/ 21   N/A           2/ 4
EASTERN LI SOUND 0700            59 63   40/ 14/ 17   N/A
ROBBINS REEF     0800            59      50/ 17/ 21 1010.0
$$


>>>>>>>>>>>>>>>>>>>>>>>>>>>> KEY <<<<<<<<<<<<<<<<<<<<<<<<<<<
>                                                          <
>     SKY/WX - SKY CONDITION/PRESENT WEATHER               <
>     TMP    - TEMPERATURE IN FAHRENHEIT                   <
>     DP     - DEWPOINT IN FAHRENHEIT                      <
>     RH     - RELATIVE HUMIDITY IN PERCENT                <
>     WIND   - DIRECTION AND SPEED IN MPH                  <
>     PRES   - MEAN SEA LEVEL PRESSURE IN INCHES OF HG     <
>     WCI    - WIND CHILL INDEX                            <
>     VSB    - VISIBILITY IN MILES                         <
>     HX     - HEAT INDEX                                  <
>     TC     - TEMPERATURE IN CELSIUS                      <
>     VRB    - VARIABLE WIND DIRECTION                     <
>                                                          <
>>>>>>>>>>>>>>>>>>>>>>>>>>>> KEY <<<<<<<<<<<<<<<<<<<<<<<<<<<





USA.gov is the U.S. government's official web portal to all federal, state and local government web resources and services.